Starlink 36153

operational
NORAD ID: 66934 Int'l Des: 2025-286 Owner: SPXS Country: US Constellation: starlink
LEOCIRCULAR

Über Starlink 36153

Beschreibung wird geladen...

Live-Position

3D-Globus wird geladen...

Nächste Überflüge

Höhenverlauf

Altitude vs Time

uPlot chart will show altitude changes over time

Zweizeiliger Elementsatz

1 66934U 25286K 25347.58336806 -.01241664 47213-3 -29441-2 0 9999
2 66934 53.1573 46.4224 0000882 54.9386 237.8610 15.96090223 2128
Epoch: 13. Dez. 2025 • Age: 16 hours

Aktueller Status

Höhe 294.6 km
Geschwindigkeit 7.73 km/s
Subsatellitenpunkt -15.79°S, 59.7°E
Startdatum 7. Dez. 2025
Alter 6 days
Typ internet

Technische Details

Klassifizierung Payload
Masse 575.00 kg
Trockenmasse 530.00 kg
Gesamtmasse 575.00 kg
Länge 0.30 m
Durchmesser 4.10 m
Spannweite 29.00 m
Form Box + pan
Hersteller SPXS
Bus-Typ Starlink V2MO
Phasenstatus In Orbit
Besitzer/Staat SPXS/US

Große Konstellationen

Loading constellations...